This is the latest recevied weather packets stored in our database for station/object W5GBS-9. If no packets are shown the sender has not sent any weather packets the latest 10 day(s).
| Time | Temp. | Humidity | Pressure | Rain* | Wind** | Luminosity | Snow |
|---|---|---|---|---|---|---|---|
| 1788150699 | 28.89° C | 100% | 1011.5 hPa | 0 mm | - | - | - |
| 1788148537 | 29.44° C | 100% | 1011.5 hPa | 0 mm | - | - | - |
| 1788147816 | 30° C | 100% | 1011.3 hPa | 0 mm | - | - | - |
| 1788147095 | 30° C | 100% | 1011.4 hPa | 0 mm | - | - | - |
| 1788145654 | 30.56° C | 100% | 1011.2 hPa | 0 mm | - | - | - |
| 1788144933 | 30.56° C | 100% | 1011 hPa | 0 mm | - | - | - |
| 1788143492 | 31.11° C | 100% | 1010.8 hPa | 0 mm | - | - | - |
| 1788142051 | 31.11° C | 100% | 1010.3 hPa | 0 mm | - | - | - |
| 1788140609 | 31.67° C | 100% | 1010 hPa | 0 mm | - | - | - |
| 1788139888 | 32.22° C | 100% | 1010 hPa | 0 mm | - | - | - |
| 1788139168 | 32.22° C | 100% | 1009.9 hPa | 0 mm | - | - | - |
| 1788137726 | 33.33° C | 100% | 1009.9 hPa | 0 mm | - | - | - |
| 1788136285 | 34.44° C | 100% | 1009.8 hPa | 0 mm | - | - | - |
| 1788134844 | 35° C | 100% | 1009.5 hPa | 0 mm | - | - | - |
| 1788134123 | 35° C | 100% | 1009.7 hPa | 0 mm | - | - | - |
| 1788133402 | 35.56° C | 100% | 1009.7 hPa | 0 mm | - | - | - |
| 1788132682 | 35.56° C | 100% | 1009.7 hPa | 0 mm | - | - | - |
| 1788131961 | 35.56° C | 100% | 1009.7 hPa | 0 mm | - | - | - |
| 1788131240 | 36.11° C | 100% | 1009.8 hPa | 0 mm | - | - | - |
| 1788130520 | 36.11° C | 100% | 1009.7 hPa | 0 mm | - | - | - |
| 1788129799 | 36.11° C | 100% | 1009.7 hPa | 0 mm | - | - | - |
| 1788129078 | 36.11° C | 100% | 1009.7 hPa | 0 mm | - | - | - |
| 1788127637 | 36.11° C | 100% | 1009.8 hPa | 0 mm | - | - | - |
| 1788126916 | 36.11° C | 100% | 1009.9 hPa | 0 mm | - | - | - |
| 1788125475 | 36.67° C | 100% | 1010.1 hPa | 0 mm | - | - | - |
* Rain latest hour (hover to see other rain measurements)
** Current wind speed in m/s (hover to see current wind gust speed)